User: anonymous   Login
Location: ????????
(55.0808°N, 38.5463°E)
Time: 16:21:25
(UTC+00:00)
Language:

ALOS - Orbit

View from above orbital plane
View from above orbital plane
View from above satellite
View from above satellite

Ground track
Ground track

The orbit data is extracted from the following two-line orbital elements,

1 28931U 06002A   24173.45750468  .00001762  00000-0  33117-3 0  9991
2 28931  98.0371 126.4244 0002432 102.2780 257.8696 14.65850917981970
Epoch (UTC): 21 June 2024 10:58:48
Eccentricity: 0.0002432
inclination: 98.0371°
perigee height: 672 km
apogee height: 676 km
right ascension of ascending node: 126.4244°
argument of perigee: 102.2780°
revolutions per day: 14.65850917
mean anomaly at epoch: 257.8696°
orbit number at epoch: 98197

The dashed part of the orbit path shows where the satellite is in the earth's shadow,  

DLR